Flag for India Weather past 2 weeks in Gyanpur, Uttar Pradesh, India

Now
64 °F

Haze.


Feels Like: 64 °F
Forecast: 47 / 68 °F
Wind: 3 mph from West

Location: Varanasi / Babatpur

Current Time: Dec 25, 2014 at 5:05:53 PM

Latest Report: Dec 25, 2014 at 4:00 PM


Visibility: 1 mi

Pressure: 30.01 "Hg

Humidity: 56%

Dew point: 48 °F

Location of GyanpurLocation

Historic Weather in Gyanpur — Graph

°F

Gyanpur temperature yesterday

Maximum temperature yesterday: 59 °F (at 3:00 PM)
Minimum temperature yesterday: 43 °F (at 4:00 AM)
Average temperature yesterday: 50 °F

Past Weeks' High & Low Weather Summary

 TemperatureHumidityPressure
High75 °F (Dec 10, 3:00 PM)100% (Dec 11, 5:00 AM)30.24 "Hg (Dec 11, 5:00 AM)
Low43 °F (Dec 22, 7:00 AM)38% (Dec 12, 2:00 PM)29.95 "Hg (Dec 10, 3:00 PM)
Average58 °F84%30.07 "Hg
* Reported Dec 10 3:00 PM — Dec 25 3:00 PM, Gyanpur, Weather by CustomWeather, © 2014

Note: Actual official high and low records may vary slightly from our data, if they occured in-between our weather recording intervals... More about our weather records

Advertising

Gyanpur weather history for previous 24 hours

 ConditionsComfort  
Time TempWeatherWind HumidityBarometerVisibility
3:00 PM
Dec 25
64 °FHaze.No wind56%30.01 "Hg1 mi
12:00 PM57 °FFog.No wind77%30.09 "Hg1 mi
10:00 AM50 °FFog.No wind94%30.15 "Hg0 mi
9:00 AM45 °FFog.No wind93%30.15 "Hg0 mi
8:00 AM45 °FFog.No wind93%30.12 "Hg0 mi
7:00 AM45 °FFog.No wind100%30.12 "Hg0 mi
6:00 AM45 °FFog.No wind100%30.09 "Hg0 mi
4:00 AM45 °FFog.No wind100%30.07 "Hg0 mi
12:00 AM48 °FFog.No wind94%30.09 "Hg0 mi
11:00 PM
Dec 24
48 °FFog.No wind94%30.09 "Hg0 mi
10:00 PM52 °FFog.1 mph94%30.09 "Hg0 mi
8:30 PM54 °FFog.3 mph94%30.09 "Hg0 mi
8:00 PM54 °FFog.No wind94%30.09 "Hg1 mi
7:00 PM55 °FFog.No wind94%30.07 "Hg1 mi
6:00 PM57 °FFog.No wind88%30.07 "Hg1 mi
5:00 PM59 °FFog.No wind82%30.04 "Hg1 mi
Weather by CustomWeather, © 2014

See weather overviewHow to use our weather pages